Location: Friedrichshafen
(47.6598°N, 9.4819°E)
Time: 06:11:38
(UTC+01:00)

N. Korean satellite - Visible Passes

Search period start: 18 February 2018 00:00
Search period end: 28 February 2018 00:00
Orbit: 459 x 514 km, 97.2° (Epoch: 17 February)

Date Brightness Start Highest point End Pass type
(mag) Time Alt. Az. Time Alt. Az. Time Alt. Az.
18 Feb 10.3 05:58:35 10° ENE 06:00:11 12° E 06:01:47 10° ESE visible
19 Feb 10.2 19:21:33 10° WSW 19:23:11 13° W 19:24:50 10° WNW visible
20 Feb 8.3 06:43:03 10° NNE 06:46:31 39° E 06:50:00 10° SSE visible
20 Feb 9.3 18:56:25 10° SSW 18:59:14 23° W 19:02:07 10° NW visible
21 Feb 9.6 06:19:45 10° NE 06:22:39 22° E 06:25:34 10° SE visible
21 Feb 7.9 18:32:04 10° S 18:35:23 44° W 18:38:46 10° NNW visible
22 Feb 10.4 05:57:10 10° ENE 05:58:43 12° E 06:00:17 10° ESE visible
23 Feb 10.1 19:19:55 10° WSW 19:21:40 13° W 19:23:27 10° WNW visible
24 Feb 8.4 06:41:33 10° NNE 06:45:02 38° E 06:48:32 10° SSE visible
24 Feb 9.2 18:54:50 10° SSW 18:57:42 24° W 19:00:39 10° NW visible
25 Feb 9.7 06:18:15 10° NE 06:21:10 21° E 06:24:04 10° SE visible
25 Feb 7.8 18:30:29 10° S 18:33:50 46° W 18:37:16 10° NNW visible
26 Feb 10.5 05:55:41 10° ENE 05:57:12 12° E 05:58:43 10° ESE visible
27 Feb 10.1 19:18:12 10° WSW 19:20:06 14° W 19:22:02 10° WNW visible
